KOREASAT 7 (42691 NORAD) Tracking and Keplerian Element Data

This shows tracking and keplerian element data for the satellite.

Feedback or suggestion? Click here.




ElementValue
Catalog42691
NameKOREASAT 7
Epoch Orbit1607
Epoch Day268.70989572
Epoch Year2021
RAAN253.8547
Inclination0.0126
Eccentricity0.0001643
Argument of Perigee296.4173
Mean Anonmoly185.9412
Mean Motion1.0027294
Decay Rate-3.65E-06
L11 42691U 17023A 21268.70989572 -.00000365 00000-0 00000-0 0 9996
L22 42691 0.0126 253.8547 0001643 296.4173 185.9412 1.00272940 16072

Live tracking and technical data element details for KOREASAT 7 (NORAD 42691). KOREASAT 7 can be tracked NOW for your location showing map with azimuth and elevation plus other details from your city location.

Track the satellite on the map from your city or location and see movement details for azimuth, elevation, latitude, longitude, range, height, and movement on the map or in text.







IsCatalogInMostPopularTable: catalog: 42691, numindb: 579
Update: records affected: 1



GetName: 42691 KOREASAT 7

Hit Count: updated at: Mon, 27 Sep 2021 00:39:33 GMT